Johnstown, PA

6:46 AM EDT on March 26, 2017 (GMT -0400)
Johnstown-Cambria County

Weather History for KJST - July, 2013

Change the Weather History Date:

Tuesday, July 2, 2013

  Actual Average Record
Temperature  
Mean Temperature 71 °F 69 °F  
Max Temperature 77 °F 78 °F 98 °F (1898)
Min Temperature 64 °F 59 °F 42 °F (1940)
Degree Days  
Heating Degree Days 0 1  
Month to date heating degree days 0 2  
Since 1 June heating degree days 63 81  
Since 1 July heating degree days 0 2  
Cooling Degree Days 6 4  
Month to date cooling degree days 9 8  
Year to date cooling degree days 118 101  
Since 1 June cooling degree days 78 83  
Growing Degree Days 20 (Base 50)    
Moisture  
Dew Point 65 °F    
Average Humidity 81    
Maximum Humidity 93    
Minimum Humidity 69    
Precipitation  
Precipitation 0.01 in 0.11 in 1.61 in (1960)
Month to date precipitation 0.22 0.24  
Year to date precipitation 8.46 16.88  
Sea Level Pressure  
Sea Level Pressure 30.07 in    
Wind  
Wind Speed 7 mph (South)    
Max Wind Speed 14 mph    
Max Gust Speed 20 mph    
Visibility 7 miles    
Events Fog , Rain , Thunderstorm    
T = Trace of Precipitation, MM = Missing Value Source: NWS Daily Summary

Daily Weather History Graph

Daily Weather History Graph

Search for Another Location

Airport or City:

Trip Planner

Search our weather history database for the weather conditions in past years. The results will help you decide how hot, cold, wet, or windy it might be!

Date:

Astronomy

Jul. 02, 2013 Rise Set
Actual Time 5:49 AM EDT 8:48 PM EDT
Civil Twilight 5:16 AM EDT 9:21 PM EDT
Nautical Twilight 4:35 AM EDT 10:03 PM EDT
Astronomical Twilight 3:46 AM EDT 10:51 PM EDT
Moon 1:51 AM EDT (7/2) 4:00 PM EDT (7/2)
Length of Visible Light 16h 04m
Length of Day
14h 59m
Waning Crescent, 26% of the Moon is Illuminated
Jul 2
Waning Crescent
Jul 8
New
Jul 15
First Quarter
Jul 22
Full
Jul 29
Last Quarter

Hourly Weather History & Observations

Time (EDT) Temp. Dew Point Humidity Pressure Visibility Wind Dir Wind Speed Gust Speed Precip Events Conditions
12:54 AM 66.9 °F 64.9 °F 93% 29.99 in 10.0 mi SW 3.5 mph - 0.01 in   Partly Cloudy
1:18 AM 64.4 °F 64.4 °F 100% 30.03 in 1.2 mi Calm Calm - N/A   Mostly Cloudy
1:22 AM 64.4 °F 64.4 °F 100% 30.03 in 0.2 mi Calm Calm - N/A Fog Fog
1:33 AM 64.4 °F 64.4 °F 100% 30.03 in 1.5 mi Calm Calm - N/A   Mostly Cloudy
1:35 AM 64.4 °F 64.4 °F 100% 30.03 in 4.0 mi Calm Calm - N/A   Mostly Cloudy
1:44 AM 64.4 °F 64.4 °F 100% 30.03 in 1.8 mi Calm Calm - N/A   Scattered Clouds
1:54 AM 64.0 °F 63.0 °F 96% 29.99 in 0.8 mi Calm Calm - N/A   Mist
1:56 AM 64.4 °F 62.6 °F 94% 30.03 in 1.0 mi Calm Calm - N/A   Scattered Clouds
2:02 AM 64.4 °F 62.6 °F 94% 30.03 in 3.0 mi Calm Calm - N/A   Scattered Clouds
2:54 AM 66.0 °F 64.0 °F 93% 29.99 in 10.0 mi Calm Calm - N/A   Overcast
3:54 AM 66.0 °F 64.0 °F 93% 29.98 in 10.0 mi SSE 6.9 mph - N/A   Mostly Cloudy
4:54 AM 66.0 °F 64.0 °F 93% 30.01 in 10.0 mi South 5.8 mph - N/A   Partly Cloudy
5:54 AM 66.0 °F 64.0 °F 93% 30.02 in 10.0 mi SSE 5.8 mph - 0.01 in   Clear
6:54 AM 66.9 °F 64.0 °F 90% 30.04 in 10.0 mi South 5.8 mph - N/A   Clear
7:54 AM 68.0 °F 64.9 °F 90% 30.04 in 10.0 mi South 6.9 mph - N/A   Partly Cloudy
8:15 AM 69.8 °F 66.2 °F 88% 30.08 in 10.0 mi SE 4.6 mph - N/A   Partly Cloudy
8:54 AM 70.0 °F 66.0 °F 87% 30.06 in 10.0 mi South 8.1 mph - N/A   Clear
9:14 AM 71.6 °F 66.2 °F 83% 30.09 in 10.0 mi SSE 6.9 mph - N/A   Mostly Cloudy
10:23 AM 71.6 °F 66.2 °F 83% 30.11 in 10.0 mi Variable 3.5 mph - N/A   Mostly Cloudy
10:52 AM 73.4 °F 66.2 °F 78% 30.11 in 10.0 mi South 9.2 mph - N/A   Scattered Clouds
10:54 AM 73.9 °F 66.0 °F 76% 30.07 in 10.0 mi South 8.1 mph - N/A   Scattered Clouds
11:33 AM 75.2 °F 64.4 °F 69% 30.11 in 10.0 mi SSW 6.9 mph 17.3 mph N/A   Mostly Cloudy
11:54 AM 75.9 °F 64.9 °F 69% 30.08 in 10.0 mi South 9.2 mph - N/A   Overcast
12:19 PM 77.0 °F 62.6 °F 61% 30.11 in 10.0 mi South 5.8 mph - N/A   Scattered Clouds
12:35 PM 75.2 °F 64.4 °F 69% 30.11 in 10.0 mi South 9.2 mph - N/A   Mostly Cloudy
12:54 PM 75.9 °F 64.0 °F 67% 30.07 in 10.0 mi South 4.6 mph - N/A   Overcast
1:21 PM 73.4 °F 66.2 °F 78% 30.12 in 3.0 mi South 9.2 mph - 0.00 in Rain , Thunderstorm Light Thunderstorms and Rain
1:29 PM 71.6 °F 66.2 °F 83% 30.12 in 1.5 mi SSW 13.8 mph - 0.00 in Rain , Thunderstorm Heavy Thunderstorms and Rain
1:34 PM 69.8 °F 66.2 °F 88% 30.11 in 0.8 mi South 6.9 mph 18.4 mph N/A Rain Heavy Rain
1:37 PM 69.8 °F 66.2 °F 88% 30.11 in 1.0 mi South 5.8 mph - N/A Rain Heavy Rain
1:40 PM 69.8 °F 66.2 °F 88% 30.11 in 1.5 mi South 12.7 mph - N/A Rain , Thunderstorm Rain
1:45 PM 69.8 °F 64.4 °F 83% 30.12 in 3.0 mi South 11.5 mph - N/A Rain , Thunderstorm Rain
1:54 PM 70.0 °F 64.9 °F 84% 30.08 in 10.0 mi South 11.5 mph - N/A Rain , Thunderstorm Light Rain
2:01 PM 69.8 °F 64.4 °F 83% 30.12 in 7.0 mi South 9.2 mph - N/A Rain , Thunderstorm Rain
2:23 PM 69.8 °F 66.2 °F 88% 30.12 in 8.0 mi SSW 4.6 mph - N/A Rain Light Rain
2:54 PM 72.0 °F 66.9 °F 84% 30.08 in 10.0 mi South 9.2 mph - N/A   Mostly Cloudy
3:54 PM 73.0 °F 66.0 °F 79% 30.08 in 10.0 mi SW 6.9 mph - 0.01 in   Scattered Clouds
4:54 PM 75.9 °F 64.9 °F 69% 30.07 in 10.0 mi SSW 6.9 mph - N/A   Mostly Cloudy
5:54 PM 73.9 °F 64.9 °F 73% 30.08 in 10.0 mi SW 6.9 mph - N/A   Partly Cloudy
6:54 PM 73.9 °F 64.9 °F 73% 30.09 in 10.0 mi South 11.5 mph - N/A   Scattered Clouds
7:54 PM 73.0 °F 64.9 °F 76% 30.10 in 10.0 mi South 9.2 mph - N/A   Clear
8:54 PM 71.1 °F 64.9 °F 81% 30.11 in 10.0 mi SSE 5.8 mph - N/A   Clear
9:54 PM 69.1 °F 64.0 °F 84% 30.12 in 10.0 mi SSE 9.2 mph - N/A   Clear
10:54 PM 68.0 °F 63.0 °F 84% 30.13 in 10.0 mi South 5.8 mph - N/A   Clear
11:54 PM 66.9 °F 63.0 °F 87% 30.13 in 10.0 mi South 3.5 mph - N/A   Clear